Jackson, WY

10:19 AM MDT on May 25, 2017 (GMT -0600)
Jackson Hole

Weather History for KJAC - August, 2013

Change the Weather History Date:

Sunday, August 25, 2013

  Actual Average Record
Temperature  
Mean Temperature 64 °F -  
Max Temperature 80 °F 75 °F 90 °F (1969)
Min Temperature 48 °F 37 °F 25 °F (1992)
Degree Days  
Heating Degree Days 1    
Growing Degree Days 14 (Base 50)    
Moisture  
Dew Point 48 °F    
Average Humidity 72    
Maximum Humidity 100    
Minimum Humidity 21    
Precipitation  
Precipitation 0.00 in - - ()
Sea Level Pressure  
Sea Level Pressure 30.24 in    
Wind  
Wind Speed 4 mph (West)    
Max Wind Speed 13 mph    
Max Gust Speed 18 mph    
Visibility 10 miles    
Events      
Averages and records for this station are not official NWS values.
T = Trace of Precipitation, MM = Missing Value Source: NWS Daily Summary

Daily Weather History Graph

Daily Weather History Graph

Search for Another Location

Airport or City:

Trip Planner

Search our weather history database for the weather conditions in past years. The results will help you decide how hot, cold, wet, or windy it might be!

Date:

Astronomy

Aug. 25, 2013 Rise Set
Actual Time 6:39 AM MDT 8:09 PM MDT
Civil Twilight 6:09 AM MDT 8:39 PM MDT
Nautical Twilight 5:32 AM MDT 9:16 PM MDT
Astronomical Twilight 4:53 AM MDT 9:54 PM MDT
Moon 10:31 PM MDT 11:56 AM MDT
Length of Visible Light 14h 30m
Length of Day
13h 30m
Waning Gibbous, 75% of the Moon is Illuminated
Aug 25
Waning Gibbous
Aug 28
Last Quarter
Sep 5
New
Sep 12
First Quarter
Sep 19
Full

Hourly Weather History & Observations

Time (MDT) Temp. Dew Point Humidity Pressure Visibility Wind Dir Wind Speed Gust Speed Precip Events Conditions
12:15 AM 53.6 °F 51.8 °F 94% 30.25 in 10.0 mi NNE 8.1 mph - N/A   Overcast
12:35 AM 55.4 °F 51.8 °F 88% 30.25 in 10.0 mi NE 6.9 mph - N/A   Overcast
1:15 AM 53.6 °F 50.0 °F 88% 30.25 in 10.0 mi WNW 5.8 mph - N/A   Mostly Cloudy
1:35 AM 53.6 °F 51.8 °F 94% 30.24 in 10.0 mi NNW 5.8 mph - N/A   Mostly Cloudy
1:55 AM 51.8 °F 50.0 °F 94% 30.25 in 10.0 mi WNW 5.8 mph - N/A   Mostly Cloudy
2:15 AM 53.6 °F 51.8 °F 94% 30.25 in 10.0 mi Calm Calm - N/A   Overcast
2:35 AM 53.6 °F 50.0 °F 88% 30.25 in 10.0 mi Calm Calm - N/A   Overcast
2:55 AM 53.6 °F 51.8 °F 94% 30.26 in 10.0 mi Calm Calm - N/A   Mostly Cloudy
3:15 AM 53.6 °F 51.8 °F 94% 30.26 in 10.0 mi Calm Calm - N/A   Partly Cloudy
3:35 AM 53.6 °F 51.8 °F 94% 30.26 in 10.0 mi Calm Calm - N/A   Clear
3:55 AM 51.8 °F 51.8 °F 100% 30.25 in 10.0 mi Calm Calm - N/A   Clear
4:15 AM 51.8 °F 51.8 °F 100% 30.26 in 10.0 mi South 3.5 mph - N/A   Clear
4:35 AM 51.8 °F 51.8 °F 100% 30.26 in 10.0 mi Calm Calm - N/A   Clear
4:55 AM 51.8 °F 51.8 °F 100% 30.26 in 10.0 mi ENE 3.5 mph - N/A   Clear
5:15 AM 51.8 °F 51.8 °F 100% 30.26 in 10.0 mi Calm Calm - N/A   Clear
5:35 AM 50.0 °F 48.2 °F 94% 30.26 in 10.0 mi Calm Calm - N/A   Clear
5:55 AM 50.0 °F 48.2 °F 94% 30.27 in 10.0 mi Calm Calm - N/A   Clear
6:15 AM 51.8 °F 51.8 °F 100% 30.27 in 10.0 mi Calm Calm - N/A   Clear
6:35 AM 51.8 °F 48.2 °F 88% 30.27 in 10.0 mi Calm Calm - N/A   Clear
6:51 AM 50.0 °F 48.2 °F 94% 30.27 in 10.0 mi Calm Calm - N/A   Clear
7:51 AM 48.2 °F 48.2 °F 100% 30.28 in 10.0 mi Calm Calm - N/A   Clear
8:51 AM 55.4 °F 51.8 °F 88% 30.29 in 10.0 mi Calm Calm - N/A   Partly Cloudy
9:52 AM 59.0 °F 51.8 °F 77% 30.29 in 10.0 mi Calm Calm - N/A   Clear
10:51 AM 64.4 °F 50.0 °F 59% 30.29 in 10.0 mi Calm Calm - N/A   Clear
11:51 AM 71.6 °F 48.2 °F 43% 30.27 in 10.0 mi SSE 5.8 mph - N/A   Clear
12:53 PM 73.4 °F 44.6 °F 36% 30.25 in 10.0 mi South 6.9 mph 17.3 mph N/A   Clear
1:51 PM 77.0 °F 42.8 °F 29% 30.23 in 10.0 mi SE 4.6 mph - N/A   Clear
2:52 PM 78.8 °F 39.2 °F 24% 30.21 in 10.0 mi South 9.2 mph 16.1 mph N/A   Clear
3:53 PM 80.6 °F 37.4 °F 21% 30.18 in 10.0 mi SSW 12.7 mph 16.1 mph N/A   Clear
4:55 PM 80.6 °F 41.0 °F 24% 30.17 in 10.0 mi SSW 11.5 mph 18.4 mph N/A   Clear
5:58 PM 77.0 °F 37.4 °F 24% 30.17 in 10.0 mi SSE 9.2 mph - N/A   Scattered Clouds
6:52 PM 75.2 °F 37.4 °F 25% 30.17 in 10.0 mi SSE 11.5 mph - N/A   Mostly Cloudy
8:51 PM 68.0 °F 44.6 °F 43% 30.18 in 10.0 mi Calm Calm - N/A   Scattered Clouds
9:15 PM 69.8 °F 44.6 °F 40% 30.19 in 10.0 mi NNW 8.1 mph - N/A   Mostly Cloudy
9:35 PM 64.4 °F 46.4 °F 52% 30.19 in 10.0 mi NNW 4.6 mph - N/A   Mostly Cloudy
9:55 PM 62.6 °F 48.2 °F 59% 30.19 in 10.0 mi NNW 4.6 mph - N/A   Scattered Clouds
10:35 PM 64.4 °F 46.4 °F 52% 30.20 in 10.0 mi Calm Calm - N/A   Partly Cloudy
10:55 PM 62.6 °F 46.4 °F 55% 30.20 in 10.0 mi Calm Calm - N/A   Mostly Cloudy
11:35 PM 57.2 °F 48.2 °F 72% 30.20 in 10.0 mi NNW 4.6 mph - N/A   Clear
11:55 PM 55.4 °F 48.2 °F 77% 30.20 in 10.0 mi North 5.8 mph - N/A   Clear